Kezdőlap
METAR-TAF:

METAR-TAF

Repülőterek :

Monticello Regional Airport

Monticello, Iowa, Amerikai Egyesült Államok

földrajzi szélesség: 42-14N, földrajzi hosszúság: 091-10W, magasság: 259 m

Jelenlegi meteorológiai megfigyelések

A jelentés 23 perccel ezelõtt készült, 09:35 UTC
Nyugat-északnyugati szél 6 kt
Hőmérséklet -4°C
Páratartalom 100%
Légköri nyomás 1015 hPa
Látótávolság: 8.0 km
Borult 700 lábon
Párásság

METAR: KMXO 130935Z AUTO 29006KT 5SM BR OVC007 M04/M04 A2998 RMK AO2

Idő: 03:58 (09:58 UTC)


TAF: hiányzik

Meteorológiai megfigyelések és előrejelzések több, mint 4000 repülőtéren (METAR és TAF jelentéseket).

A térképen piros és sárga pontok jelzik az elérhető meteorológiai állomásokat.

Mozgassa az egeret a pont fölött, hogy megjelenjen az állomás neve.

Azután kattintson az időjárási megfigyelések és előrejelzések megtekintéséhez.

A térkép megváltoztatása: kattintson a fekete keresztel jelölt zöld gombra ráközelítéshez, a vonallal jelölt zöld gombra távolításhoz, vagy a zöld nyilakra a szomszédos térképek eléréséhez.


METAR-TAF: